FENGYUN 1C DEB, 31287

Orbit data source: Space-Track

FENGYUN 1C DEB, 31287 is space debris in SSO originally from a launch on Mon, 10 May 1999 UTC launched from the Taiyaun Space Center, China (TSC). Fengyun 1C debris stems from the Chinese weather satellite Fengyun-1C, which was intentionally destroyed by a Chinese anti-satellite missile in 2007. This event dramatically increased the amount of space debris, with thousands of trackable fragments posing hazards to satellites and human spaceflight. The Fengyun 1C debris cloud has become a focal point in discussions about space sustainability and the need for international regulations to prevent the creation of new debris.

Loading next visibility...
Identifier
31287, 1999-025BNV
Orbit
SSO
Country
Flag of CNCN / PRC
Related business
Manufacturer
Unknown
Mission
Spacecraft
Bus & Motor
Unknown
Mass
Unknown
Launch date (UTC)
1999-05-10 (27 years ago)
Launch vehicle
Unknown
Launch site
Taiyaun Space Center, China (TSC)
Object type
Payload
Rocket body
Debris
Shape & HBR
Unknown shape, 0.1 m
Radar Cross Section
Small (<0.1 m²)

Expand to show TLE details & history
Last TLE update: 5 days ago

TLE from 5 days ago
0 FENGYUN 1C DEB
1 31287U 99025BNV 26118.12495701  .00003389  00000-0  13513-2 0  9991
2 31287  99.3918 189.5445 0027029  35.3793 324.9172 14.29084297986331
Epoch: 2026-04-28T02:59Z
TLE epoch observation values (Epoch: 2026-04-28T02:59:56.285Z)
Latitude
-0.00013°
Longitude
-71.54476°
Altitude
781.846 km
Speed
7.471 km/s
True Right ascension
12h 38m 10s
True Declination
0° 00' 00"
Sunlit
Object was in full shadow at epoch
Visualization orbit readout
Latitude
Unknown
Longitude
Unknown
Altitude
Unknown
Speed
Unknown
Apparent Right ascension
Unknown
Apparent Declination
Unknown
Sunlit
N/A
Visualization observer readout
Local Sidereal Time
17:26:42
Azimuth
Unknown
Elevation
Unknown
Doppler factor
Unknown
Orbital elements
Apogee altitude
811.354 km
Perigee altitude
772.594 km
Semi-major axis
7,170.111 km
Eccentricity
0.0027
Inclination
99.3918°
RAAN
189.5445°
Arg. of periapsis
35.3793°
True anomaly
324.73869°
Mean anomaly
324.9172°
Eccentric anomaly
324.82799°
Mean motion
3.57482 °/min
Orbital period
100.7 mins
BSTAR
0.0013513
Loading maneuver chart data...
Computing Atmospheric mass density...

Documentation

Showing up to 5 results
|